Time,TemperatureF,DewpointF,PressureIn,WindDirection,WindDirectionDegrees,WindSpeedMPH,WindSpeedGustMPH,Humidity,HourlyPrecipIn,Conditions,Clouds,dailyrainin,SoftwareType,DateUTC
2013-01-09 00:04:00,45.7,44.9,30.15,NNW,342,0.0,0.0,97,0.00,,,0.00,LWC V1.00 B64,2013-01-09 08:04:00,
2013-01-09 00:09:00,45.6,44.5,30.15,NNW,342,0.0,0.0,96,0.00,,,0.00,LWC V1.00 B64,2013-01-09 08:09:00,
2013-01-09 00:14:00,45.4,44.3,30.16,NNW,342,0.0,0.0,96,0.00,,,0.00,LWC V1.00 B64,2013-01-09 08:14:00,
2013-01-09 00:19:00,45.2,44.1,30.16,NNW,341,0.0,0.0,96,0.00,,,0.00,LWC V1.00 B64,2013-01-09 08:19:00,
2013-01-09 00:24:00,45.1,44.0,30.16,NNW,342,0.0,0.0,96,0.00,,,0.00,LWC V1.00 B64,2013-01-09 08:24:00,
2013-01-09 00:29:00,44.9,43.8,30.16,NNW,341,0.0,0.0,96,0.00,,,0.00,LWC V1.00 B64,2013-01-09 08:29:00,
2013-01-09 00:34:00,44.8,43.7,30.16,NNW,342,0.0,0.0,96,0.00,,,0.00,LWC V1.00 B64,2013-01-09 08:34:00,
2013-01-09 00:39:00,44.6,43.8,30.16,NNW,341,0.0,0.0,97,0.00,,,0.00,LWC V1.00 B64,2013-01-09 08:39:00,
2013-01-09 00:44:00,44.5,43.4,30.15,NNW,342,0.0,0.0,96,0.00,,,0.00,LWC V1.00 B64,2013-01-09 08:44:00,
2013-01-09 00:49:00,44.5,43.4,30.16,NNW,342,0.0,0.0,96,0.00,,,0.00,LWC V1.00 B64,2013-01-09 08:49:00,
2013-01-09 00:54:00,44.4,43.3,30.16,NNW,341,0.0,0.0,96,0.00,,,0.00,LWC V1.00 B64,2013-01-09 08:54:00,
2013-01-09 00:59:00,44.3,43.2,30.16,NNW,342,0.0,0.0,96,0.00,,,0.00,LWC V1.00 B64,2013-01-09 08:59:00,
2013-01-09 01:04:00,44.2,43.4,30.15,NNW,342,0.0,0.0,97,0.00,,,0.00,LWC V1.00 B64,2013-01-09 09:04:00,
2013-01-09 01:09:00,44.1,43.3,30.15,NNW,342,0.0,1.0,97,0.00,,,0.00,LWC V1.00 B64,2013-01-09 09:09:00,
2013-01-09 01:14:00,44.0,42.9,30.15,NNW,341,0.0,0.0,96,0.00,,,0.00,LWC V1.00 B64,2013-01-09 09:14:00,
2013-01-09 01:19:00,43.9,43.1,30.15,NNW,342,0.0,1.0,97,0.00,,,0.00,LWC V1.00 B64,2013-01-09 09:19:00,
2013-01-09 01:24:00,43.9,43.1,30.15,NNW,342,0.0,0.0,97,0.00,,,0.00,LWC V1.00 B64,2013-01-09 09:24:00,
2013-01-09 01:29:00,43.9,43.1,30.16,NNW,341,0.0,0.0,97,0.00,,,0.00,LWC V1.00 B64,2013-01-09 09:29:00,
2013-01-09 01:34:00,43.9,43.1,30.14,NNW,342,0.0,0.0,97,0.00,,,0.00,LWC V1.00 B64,2013-01-09 09:34:00,
2013-01-09 01:39:00,43.8,43.0,30.16,NNW,342,0.0,0.0,97,0.00,,,0.00,LWC V1.00 B64,2013-01-09 09:39:00,
2013-01-09 01:44:00,43.8,43.0,30.16,NNW,342,0.0,0.0,97,0.00,,,0.00,LWC V1.00 B64,2013-01-09 09:44:00,
2013-01-09 01:49:00,43.7,42.9,30.16,NNW,341,0.0,0.0,97,0.00,,,0.00,LWC V1.00 B64,2013-01-09 09:49:00,
2013-01-09 01:54:00,43.6,42.8,30.16,NNW,342,3.0,3.0,97,0.00,,,0.00,LWC V1.00 B64,2013-01-09 09:54:00,
2013-01-09 01:59:00,43.4,42.6,30.16,NNW,343,0.0,1.0,97,0.00,,,0.00,LWC V1.00 B64,2013-01-09 09:59:00,
2013-01-09 02:04:00,43.3,42.5,30.16,NNW,342,0.0,0.0,97,0.00,,,0.00,LWC V1.00 B64,2013-01-09 10:04:00,
2013-01-09 02:09:00,43.3,42.5,30.16,NNW,342,0.0,0.0,97,0.00,,,0.00,LWC V1.00 B64,2013-01-09 10:09:00,
2013-01-09 02:14:00,43.2,42.4,30.17,NNW,343,0.0,0.0,97,0.00,,,0.00,LWC V1.00 B64,2013-01-09 10:14:00,
2013-01-09 02:19:00,43.1,42.3,30.16,NNW,343,0.0,0.0,97,0.00,,,0.00,LWC V1.00 B64,2013-01-09 10:19:00,
2013-01-09 02:24:00,42.9,42.1,30.15,NNW,343,0.0,0.0,97,0.00,,,0.00,LWC V1.00 B64,2013-01-09 10:24:00,
2013-01-09 02:29:00,42.8,42.0,30.15,NNW,342,0.0,0.0,97,0.00,,,0.00,LWC V1.00 B64,2013-01-09 10:29:00,
2013-01-09 02:34:00,42.8,42.0,30.15,NNW,343,0.0,0.0,97,0.00,,,0.00,LWC V1.00 B64,2013-01-09 10:34:00,
2013-01-09 02:39:00,42.8,42.0,30.15,NNW,342,0.0,0.0,97,0.00,,,0.00,LWC V1.00 B64,2013-01-09 10:39:00,
2013-01-09 02:44:00,42.8,42.0,30.15,NNW,342,0.0,0.0,97,0.00,,,0.00,LWC V1.00 B64,2013-01-09 10:44:00,
2013-01-09 02:49:00,42.8,42.0,30.15,NNW,342,0.0,0.0,97,0.00,,,0.01,LWC V1.00 B64,2013-01-09 10:49:00,
2013-01-09 02:54:00,42.8,42.0,30.15,NNW,343,0.0,0.0,97,0.00,,,0.01,LWC V1.00 B64,2013-01-09 10:54:00,
2013-01-09 02:59:00,42.7,41.9,30.15,NNW,343,0.0,0.0,97,0.00,,,0.01,LWC V1.00 B64,2013-01-09 10:59:00,
2013-01-09 03:04:00,42.4,41.6,30.15,NNW,343,0.0,0.0,97,0.00,,,0.01,LWC V1.00 B64,2013-01-09 11:04:00,
2013-01-09 03:09:00,42.2,41.4,30.15,NNW,342,0.0,0.0,97,0.00,,,0.01,LWC V1.00 B64,2013-01-09 11:09:00,
2013-01-09 03:14:00,42.1,41.3,30.15,NNW,343,0.0,0.0,97,0.00,,,0.01,LWC V1.00 B64,2013-01-09 11:14:00,
2013-01-09 03:19:00,41.9,41.1,30.14,NNW,342,0.0,0.0,97,0.00,,,0.01,LWC V1.00 B64,2013-01-09 11:19:00,
2013-01-09 03:24:00,41.7,40.9,30.14,NNW,343,0.0,0.0,97,0.00,,,0.01,LWC V1.00 B64,2013-01-09 11:24:00,
2013-01-09 03:29:00,41.6,40.8,30.14,NNW,343,0.0,0.0,97,0.00,,,0.01,LWC V1.00 B64,2013-01-09 11:29:00,
2013-01-09 03:34:00,41.5,40.7,30.15,NNW,343,0.0,0.0,97,0.00,,,0.01,LWC V1.00 B64,2013-01-09 11:34:00,
2013-01-09 03:39:00,41.6,40.8,30.14,NNW,343,0.0,1.0,97,0.00,,,0.01,LWC V1.00 B64,2013-01-09 11:39:00,
2013-01-09 03:44:00,41.6,40.8,30.14,NNW,342,0.0,0.0,97,0.00,,,0.01,LWC V1.00 B64,2013-01-09 11:44:00,
2013-01-09 03:49:00,41.4,40.6,30.13,NNW,343,0.0,0.0,97,0.00,,,0.01,LWC V1.00 B64,2013-01-09 11:49:00,
2013-01-09 03:54:00,41.3,40.5,30.13,NNW,343,0.0,0.0,97,0.00,,,0.01,LWC V1.00 B64,2013-01-09 11:54:00,
2013-01-09 03:59:00,41.2,40.4,30.13,NNW,342,0.0,0.0,97,0.00,,,0.01,LWC V1.00 B64,2013-01-09 11:59:00,
2013-01-09 04:04:00,41.2,40.4,30.13,NNW,342,0.0,0.0,97,0.00,,,0.01,LWC V1.00 B64,2013-01-09 12:04:00,
2013-01-09 04:09:00,41.0,40.2,30.12,NNW,343,0.0,0.0,97,0.00,,,0.01,LWC V1.00 B64,2013-01-09 12:09:00,
2013-01-09 04:14:00,41.0,40.2,30.12,NNW,343,0.0,0.0,97,0.00,,,0.01,LWC V1.00 B64,2013-01-09 12:14:00,
2013-01-09 04:19:00,41.0,40.2,30.12,NNW,342,0.0,0.0,97,0.00,,,0.01,LWC V1.00 B64,2013-01-09 12:19:00,
2013-01-09 04:24:00,41.1,40.3,30.12,NNW,343,0.0,0.0,97,0.00,,,0.01,LWC V1.00 B64,2013-01-09 12:24:00,
2013-01-09 04:29:00,41.1,40.3,30.12,NNW,343,0.0,0.0,97,0.00,,,0.01,LWC V1.00 B64,2013-01-09 12:29:00,
2013-01-09 04:34:00,41.0,40.2,30.12,NNW,343,0.0,0.0,97,0.00,,,0.01,LWC V1.00 B64,2013-01-09 12:34:00,
2013-01-09 04:39:00,41.0,40.2,30.11,NNW,342,0.0,0.0,97,0.00,,,0.01,LWC V1.00 B64,2013-01-09 12:39:00,
2013-01-09 04:44:00,41.0,40.2,30.12,NNW,343,0.0,0.0,97,0.00,,,0.01,LWC V1.00 B64,2013-01-09 12:44:00,
2013-01-09 04:49:00,41.1,40.3,30.12,NNW,343,0.0,0.0,97,0.00,,,0.01,LWC V1.00 B64,2013-01-09 12:49:00,
2013-01-09 04:54:00,41.1,40.3,30.12,NNW,342,0.0,0.0,97,0.00,,,0.01,LWC V1.00 B64,2013-01-09 12:54:00,
2013-01-09 04:59:00,41.1,40.3,30.12,NNW,343,0.0,0.0,97,0.00,,,0.01,LWC V1.00 B64,2013-01-09 12:59:00,
2013-01-09 05:04:00,41.1,40.3,30.13,NNW,343,0.0,0.0,97,0.00,,,0.01,LWC V1.00 B64,2013-01-09 13:04:00,
2013-01-09 05:09:00,41.1,40.3,30.13,NNW,343,0.0,0.0,97,0.00,,,0.01,LWC V1.00 B64,2013-01-09 13:09:00,
2013-01-09 05:14:00,41.0,40.2,30.13,NNW,342,0.0,0.0,97,0.00,,,0.01,LWC V1.00 B64,2013-01-09 13:14:00,
2013-01-09 05:19:00,41.0,40.2,30.13,NNW,343,1.0,1.0,97,0.00,,,0.01,LWC V1.00 B64,2013-01-09 13:19:00,
2013-01-09 05:24:00,41.0,40.2,30.12,NNW,343,0.0,2.0,97,0.00,,,0.01,LWC V1.00 B64,2013-01-09 13:24:00,
2013-01-09 05:29:00,41.0,40.2,30.13,NNW,343,0.0,0.0,97,0.00,,,0.01,LWC V1.00 B64,2013-01-09 13:29:00,
2013-01-09 05:34:00,41.1,40.3,30.13,NNW,342,0.0,0.0,97,0.00,,,0.01,LWC V1.00 B64,2013-01-09 13:34:00,
2013-01-09 05:39:00,41.1,40.3,30.13,NNW,343,0.0,1.0,97,0.00,,,0.01,LWC V1.00 B64,2013-01-09 13:39:00,
2013-01-09 05:44:00,41.0,40.2,30.13,NNW,343,0.0,0.0,97,0.00,,,0.01,LWC V1.00 B64,2013-01-09 13:44:00,
2013-01-09 05:49:00,40.9,40.1,30.13,NNW,343,0.0,0.0,97,0.00,,,0.01,LWC V1.00 B64,2013-01-09 13:49:00,
2013-01-09 05:54:00,40.7,39.9,30.12,NNW,342,0.0,0.0,97,0.00,,,0.01,LWC V1.00 B64,2013-01-09 13:54:00,
2013-01-09 05:59:00,40.7,39.9,30.12,NNW,343,0.0,0.0,97,0.00,,,0.01,LWC V1.00 B64,2013-01-09 13:59:00,
2013-01-09 06:04:00,40.6,39.8,30.12,NNW,343,0.0,0.0,97,0.00,,,0.01,LWC V1.00 B64,2013-01-09 14:04:00,
2013-01-09 06:09:00,40.6,39.8,30.12,NNW,342,0.0,0.0,97,0.00,,,0.01,LWC V1.00 B64,2013-01-09 14:09:00,
2013-01-09 06:14:00,40.6,39.8,30.12,NNW,342,0.0,0.0,97,0.00,,,0.01,LWC V1.00 B64,2013-01-09 14:14:00,
2013-01-09 06:19:00,40.5,39.7,30.13,NNW,343,0.0,1.0,97,0.00,,,0.01,LWC V1.00 B64,2013-01-09 14:19:00,
2013-01-09 06:24:00,40.6,39.8,30.13,NNW,343,0.0,0.0,97,0.00,,,0.01,LWC V1.00 B64,2013-01-09 14:24:00,
2013-01-09 06:29:00,40.6,39.8,30.12,NNW,343,0.0,0.0,97,0.00,,,0.01,LWC V1.00 B64,2013-01-09 14:29:00,
2013-01-09 06:34:00,40.6,39.8,30.13,NNW,343,0.0,0.0,97,0.00,,,0.01,LWC V1.00 B64,2013-01-09 14:34:00,
2013-01-09 06:39:00,40.6,39.8,30.12,NNW,343,0.0,0.0,97,0.00,,,0.01,LWC V1.00 B64,2013-01-09 14:39:00,
2013-01-09 06:44:00,40.7,39.9,30.13,NNW,342,0.0,0.0,97,0.00,,,0.01,LWC V1.00 B64,2013-01-09 14:44:00,
2013-01-09 06:49:00,40.7,39.9,30.13,NNW,343,0.0,0.0,97,0.00,,,0.01,LWC V1.00 B64,2013-01-09 14:49:00,
2013-01-09 06:54:00,40.8,40.0,30.12,NNW,343,0.0,0.0,97,0.00,,,0.01,LWC V1.00 B64,2013-01-09 14:54:00,
2013-01-09 06:59:00,40.8,40.0,30.12,NNW,343,0.0,0.0,97,0.00,,,0.01,LWC V1.00 B64,2013-01-09 14:59:00,
2013-01-09 07:04:00,40.8,40.0,30.12,NNW,343,0.0,0.0,97,0.00,,,0.01,LWC V1.00 B64,2013-01-09 15:04:00,
2013-01-09 07:09:00,40.8,40.3,30.12,NNW,342,0.0,1.0,98,0.00,,,0.01,LWC V1.00 B64,2013-01-09 15:09:00,
2013-01-09 07:14:00,40.9,40.4,30.12,NNW,343,0.0,0.0,98,0.00,,,0.01,LWC V1.00 B64,2013-01-09 15:14:00,
2013-01-09 07:19:00,40.9,40.4,30.13,NNW,342,0.0,1.0,98,0.00,,,0.01,LWC V1.00 B64,2013-01-09 15:19:00,
2013-01-09 07:24:00,41.0,40.5,30.12,NNW,343,0.0,0.0,98,0.00,,,0.01,LWC V1.00 B64,2013-01-09 15:24:00,
2013-01-09 07:29:00,41.0,40.5,30.12,NNW,343,0.0,1.0,98,0.00,,,0.01,LWC V1.00 B64,2013-01-09 15:29:00,
2013-01-09 07:34:00,41.1,40.6,30.12,NNW,343,0.0,1.0,98,0.00,,,0.01,LWC V1.00 B64,2013-01-09 15:34:00,
2013-01-09 07:39:00,41.4,40.9,30.13,NNW,344,0.0,2.0,98,0.00,,,0.01,LWC V1.00 B64,2013-01-09 15:39:00,
2013-01-09 07:44:00,41.8,41.3,30.13,NNW,344,0.0,0.0,98,0.00,,,0.01,LWC V1.00 B64,2013-01-09 15:44:00,
2013-01-09 07:49:00,42.0,41.5,30.12,NNW,344,0.0,1.0,98,0.00,,,0.01,LWC V1.00 B64,2013-01-09 15:49:00,
2013-01-09 07:54:00,42.2,41.7,30.12,NNW,344,0.0,0.0,98,0.00,,,0.01,LWC V1.00 B64,2013-01-09 15:54:00,
2013-01-09 07:59:00,42.4,41.9,30.12,NNW,344,0.0,1.0,98,0.00,,,0.01,LWC V1.00 B64,2013-01-09 15:59:00,
2013-01-09 08:04:00,42.6,42.1,30.12,NNW,344,0.0,1.0,98,0.00,,,0.01,LWC V1.00 B64,2013-01-09 16:04:00,
2013-01-09 08:09:00,42.8,42.3,30.13,NNW,344,0.0,0.0,98,0.00,,,0.01,LWC V1.00 B64,2013-01-09 16:09:00,
2013-01-09 08:14:00,42.9,42.4,30.12,NNW,344,0.0,0.0,98,0.00,,,0.01,LWC V1.00 B64,2013-01-09 16:14:00,
2013-01-09 08:19:00,42.9,42.4,30.12,NNW,344,0.0,0.0,98,0.00,,,0.01,LWC V1.00 B64,2013-01-09 16:19:00,
2013-01-09 08:24:00,42.9,42.4,30.12,NNW,344,0.0,1.0,98,0.00,,,0.01,LWC V1.00 B64,2013-01-09 16:24:00,
2013-01-09 08:29:00,43.0,42.5,30.12,NNW,344,0.0,0.0,98,0.00,,,0.01,LWC V1.00 B64,2013-01-09 16:29:00,
2013-01-09 08:34:00,43.1,42.6,30.12,NNW,344,0.0,0.0,98,0.00,,,0.01,LWC V1.00 B64,2013-01-09 16:34:00,
2013-01-09 08:39:00,43.2,42.7,30.12,NNW,344,0.0,0.0,98,0.00,,,0.01,LWC V1.00 B64,2013-01-09 16:39:00,
2013-01-09 08:44:00,43.5,43.0,30.12,NNW,344,0.0,0.0,98,0.00,,,0.01,LWC V1.00 B64,2013-01-09 16:44:00,
2013-01-09 08:49:00,43.8,43.3,30.12,NNW,344,0.0,0.0,98,0.00,,,0.01,LWC V1.00 B64,2013-01-09 16:49:00,
2013-01-09 08:54:00,44.1,43.6,30.12,NNW,344,0.0,0.0,98,0.00,,,0.01,LWC V1.00 B64,2013-01-09 16:54:00,
2013-01-09 08:59:00,44.3,43.8,30.11,NNW,344,0.0,0.0,98,0.00,,,0.01,LWC V1.00 B64,2013-01-09 16:59:00,
2013-01-09 09:04:00,44.4,43.9,30.11,NNW,344,0.0,0.0,98,0.00,,,0.01,LWC V1.00 B64,2013-01-09 17:04:00,
2013-01-09 09:09:00,44.7,44.2,30.12,NNW,344,0.0,1.0,98,0.00,,,0.01,LWC V1.00 B64,2013-01-09 17:09:00,
2013-01-09 09:14:00,45.0,44.5,30.12,NNW,344,0.0,1.0,98,0.00,,,0.01,LWC V1.00 B64,2013-01-09 17:14:00,
2013-01-09 09:19:00,45.2,44.7,30.11,NNW,344,0.0,0.0,98,0.00,,,0.01,LWC V1.00 B64,2013-01-09 17:19:00,
2013-01-09 09:24:00,45.5,45.0,30.11,NNW,344,0.0,0.0,98,0.00,,,0.01,LWC V1.00 B64,2013-01-09 17:24:00,
2013-01-09 09:29:00,45.7,45.2,30.11,NNW,344,0.0,0.0,98,0.00,,,0.01,LWC V1.00 B64,2013-01-09 17:29:00,
2013-01-09 09:34:00,46.1,45.6,30.11,NNW,344,0.0,1.0,98,0.00,,,0.01,LWC V1.00 B64,2013-01-09 17:34:00,
2013-01-09 09:39:00,46.6,46.1,30.11,NNW,343,0.0,2.0,98,0.00,,,0.01,LWC V1.00 B64,2013-01-09 17:39:00,
2013-01-09 09:44:00,46.9,46.4,30.10,NNW,343,1.0,2.0,98,0.00,,,0.01,LWC V1.00 B64,2013-01-09 17:44:00,
2013-01-09 09:49:00,47.2,46.7,30.11,NNW,343,0.0,3.0,98,0.00,,,0.01,LWC V1.00 B64,2013-01-09 17:49:00,
2013-01-09 09:54:00,47.5,47.0,30.10,NNW,343,0.0,1.0,98,0.00,,,0.01,LWC V1.00 B64,2013-01-09 17:54:00,
2013-01-09 09:59:00,47.7,47.2,30.10,NNW,343,0.0,1.0,98,0.00,,,0.01,LWC V1.00 B64,2013-01-09 17:59:00,
2013-01-09 10:04:00,48.1,47.6,30.11,NNW,343,0.0,1.0,98,0.00,,,0.01,LWC V1.00 B64,2013-01-09 18:04:00,
2013-01-09 10:09:00,48.3,47.8,30.10,NNW,342,0.0,0.0,98,0.00,,,0.01,LWC V1.00 B64,2013-01-09 18:09:00,
2013-01-09 10:14:00,48.5,48.0,30.09,NNW,342,0.0,0.0,98,0.00,,,0.01,LWC V1.00 B64,2013-01-09 18:14:00,
2013-01-09 10:19:00,48.6,48.1,30.10,NNW,343,0.0,2.0,98,0.00,,,0.01,LWC V1.00 B64,2013-01-09 18:19:00,
2013-01-09 10:24:00,48.7,48.2,30.10,NNW,343,2.0,2.0,98,0.00,,,0.01,LWC V1.00 B64,2013-01-09 18:24:00,
2013-01-09 10:29:00,48.8,48.3,30.10,NNW,342,0.0,1.0,98,0.00,,,0.01,LWC V1.00 B64,2013-01-09 18:29:00,
2013-01-09 10:34:00,49.0,48.2,30.10,NNW,342,0.0,0.0,97,0.00,,,0.01,LWC V1.00 B64,2013-01-09 18:34:00,
2013-01-09 10:39:00,49.2,48.7,30.09,NNW,343,0.0,0.0,98,0.00,,,0.01,LWC V1.00 B64,2013-01-09 18:39:00,
2013-01-09 10:41:00,49.2,48.7,30.09,NNW,343,0.0,0.0,98,0.00,,,0.01,LWC V1.00 B64,2013-01-09 18:41:00,
2013-01-09 10:43:00,49.2,48.7,30.10,NNW,343,0.0,0.0,98,0.00,,,0.01,LWC V1.00 B64,2013-01-09 18:43:00,
2013-01-09 10:44:00,49.2,48.4,30.10,NNW,342,0.0,0.0,97,0.00,,,0.01,LWC V1.00 B64,2013-01-09 18:44:00,
2013-01-09 10:45:00,49.3,48.5,30.10,NNW,342,0.0,0.0,97,0.00,,,0.01,LWC V1.00 B64,2013-01-09 18:45:00,
2013-01-09 10:46:00,49.3,48.5,30.10,NNW,343,0.0,0.0,97,0.00,,,0.01,LWC V1.00 B64,2013-01-09 18:46:00,
2013-01-09 10:48:00,49.4,48.6,30.10,NNW,343,0.0,0.0,97,0.00,,,0.01,LWC V1.00 B64,2013-01-09 18:48:00,
2013-01-09 10:50:00,49.4,48.6,30.09,NNW,342,0.0,0.0,97,0.00,,,0.01,LWC V1.00 B64,2013-01-09 18:50:00,
2013-01-09 10:55:00,49.8,49.0,30.09,NNW,343,0.0,0.0,97,0.00,,,0.01,LWC V1.00 B64,2013-01-09 18:55:00,
2013-01-09 11:00:00,50.0,49.2,30.09,NNW,343,0.0,0.0,97,0.00,,,0.01,LWC V1.00 B64,2013-01-09 19:00:00,
2013-01-09 11:05:00,50.4,49.9,30.08,NNW,343,2.0,2.0,98,0.00,,,0.01,LWC V1.00 B64,2013-01-09 19:05:00,
2013-01-09 11:10:00,50.7,49.9,30.09,NNW,343,0.0,0.0,97,0.00,,,0.01,LWC V1.00 B64,2013-01-09 19:10:00,
2013-01-09 11:15:00,51.0,50.2,30.08,NNW,340,0.0,2.0,97,0.00,,,0.01,LWC V1.00 B64,2013-01-09 19:15:00,
2013-01-09 11:20:00,51.2,50.4,30.08,NNW,344,0.0,2.0,97,0.00,,,0.01,LWC V1.00 B64,2013-01-09 19:20:00,
2013-01-09 11:25:00,51.4,50.6,30.08,NNW,345,3.0,3.0,97,0.00,,,0.01,LWC V1.00 B64,2013-01-09 19:25:00,
2013-01-09 11:30:00,51.7,50.6,30.07,NNW,345,1.0,4.0,96,0.00,,,0.01,LWC V1.00 B64,2013-01-09 19:30:00,
2013-01-09 11:35:00,51.9,50.8,30.07,NNW,346,0.0,3.0,96,0.00,,,0.01,LWC V1.00 B64,2013-01-09 19:35:00,
2013-01-09 11:40:00,52.1,51.0,30.07,North,355,0.0,5.0,96,0.00,,,0.01,LWC V1.00 B64,2013-01-09 19:40:00,
2013-01-09 11:45:00,52.8,51.4,30.07,NE,34,4.0,4.0,95,0.00,,,0.01,LWC V1.00 B64,2013-01-09 19:45:00,
2013-01-09 11:48:00,53.2,51.5,30.06,North,355,4.0,6.0,94,0.00,,,0.01,LWC V1.00 B64,2013-01-09 19:48:00,
2013-01-09 11:53:00,53.7,51.7,30.06,North,355,0.0,6.0,93,0.00,,,0.01,LWC V1.00 B64,2013-01-09 19:53:00,
2013-01-09 11:58:00,54.1,51.5,30.07,NNE,15,4.0,4.0,91,0.00,,,0.01,LWC V1.00 B64,2013-01-09 19:58:00,
2013-01-09 12:03:00,54.2,51.3,30.06,West,278,2.0,3.0,90,0.00,,,0.01,LWC V1.00 B64,2013-01-09 20:03:00,
2013-01-09 12:08:00,54.2,51.0,30.06,NW,317,2.0,3.0,89,0.00,,,0.01,LWC V1.00 B64,2013-01-09 20:08:00,
2013-01-09 12:14:00,54.4,51.2,30.05,West,265,3.0,5.0,89,0.00,,,0.01,LWC V1.00 B64,2013-01-09 20:14:00,
2013-01-09 12:19:00,54.7,51.5,30.05,West,264,0.0,2.0,89,0.00,,,0.01,LWC V1.00 B64,2013-01-09 20:19:00,
2013-01-09 12:25:00,54.8,51.3,30.05,WNW,302,0.0,3.0,88,0.00,,,0.01,LWC V1.00 B64,2013-01-09 20:25:00,
2013-01-09 12:30:00,54.6,51.1,30.04,NNW,343,4.0,4.0,88,0.00,,,0.01,LWC V1.00 B64,2013-01-09 20:30:00,
2013-01-09 12:35:00,54.4,50.9,30.04,North,355,2.0,6.0,88,0.00,,,0.01,LWC V1.00 B64,2013-01-09 20:35:00,
2013-01-09 12:40:00,54.2,50.7,30.04,NNW,339,0.0,5.0,88,0.00,,,0.01,LWC V1.00 B64,2013-01-09 20:40:00,
2013-01-09 12:45:00,54.1,50.6,30.03,NNW,344,4.0,4.0,88,0.00,,,0.01,LWC V1.00 B64,2013-01-09 20:45:00,
2013-01-09 12:50:00,54.0,50.8,30.03,NNW,344,2.0,4.0,89,0.00,,,0.01,LWC V1.00 B64,2013-01-09 20:50:00,
2013-01-09 12:55:00,54.0,50.8,30.03,NNW,339,1.0,2.0,89,0.00,,,0.01,LWC V1.00 B64,2013-01-09 20:55:00,
2013-01-09 13:00:00,54.1,51.2,30.03,WSW,245,3.0,3.0,90,0.00,,,0.01,LWC V1.00 B64,2013-01-09 21:00:00,
2013-01-09 13:05:00,54.1,51.2,30.03,SSW,212,4.0,4.0,90,0.00,,,0.01,LWC V1.00 B64,2013-01-09 21:05:00,
2013-01-09 13:10:00,53.9,51.3,30.02,SW,225,1.0,3.0,91,0.00,,,0.01,LWC V1.00 B64,2013-01-09 21:10:00,
2013-01-09 13:15:00,53.7,51.4,30.02,SW,228,0.0,2.0,92,0.00,,,0.01,LWC V1.00 B64,2013-01-09 21:15:00,
2013-01-09 13:20:00,53.7,51.7,30.02,SW,232,0.0,2.0,93,0.00,,,0.01,LWC V1.00 B64,2013-01-09 21:20:00,
2013-01-09 13:25:00,53.5,51.2,30.01,SW,232,1.0,1.0,92,0.00,,,0.01,LWC V1.00 B64,2013-01-09 21:25:00,
2013-01-09 13:30:00,53.2,51.2,30.03,SW,234,0.0,1.0,93,0.00,,,0.01,LWC V1.00 B64,2013-01-09 21:30:00,
2013-01-09 13:35:00,52.5,50.2,30.03,North,11,6.0,12.0,92,0.00,,,0.01,LWC V1.00 B64,2013-01-09 21:35:00,
2013-01-09 13:40:00,51.6,49.6,30.02,North,5,5.0,9.0,93,0.00,,,0.01,LWC V1.00 B64,2013-01-09 21:40:00,
2013-01-09 13:45:00,50.7,49.0,30.02,NNW,342,11.0,16.0,94,0.00,,,0.02,LWC V1.00 B64,2013-01-09 21:45:00,
2013-01-09 13:50:00,50.3,48.6,30.02,North,5,4.0,16.0,94,0.00,,,0.02,LWC V1.00 B64,2013-01-09 21:50:00,
2013-01-09 13:55:00,50.1,48.7,30.03,NNW,338,8.0,16.0,95,0.00,,,0.02,LWC V1.00 B64,2013-01-09 21:55:00,
2013-01-09 14:00:00,49.9,48.5,30.03,North,5,7.0,10.0,95,0.00,,,0.02,LWC V1.00 B64,2013-01-09 22:00:00,
2013-01-09 14:05:00,49.8,48.4,30.03,North,355,6.0,17.0,95,0.00,,,0.02,LWC V1.00 B64,2013-01-09 22:05:00,
2013-01-09 14:10:00,49.6,47.9,30.02,NNW,348,7.0,17.0,94,0.00,,,0.02,LWC V1.00 B64,2013-01-09 22:10:00,
2013-01-09 14:15:00,49.6,47.9,30.02,North,355,9.0,13.0,94,0.00,,,0.02,LWC V1.00 B64,2013-01-09 22:15:00,
2013-01-09 14:20:00,49.5,47.8,30.03,North,355,8.0,13.0,94,0.00,,,0.02,LWC V1.00 B64,2013-01-09 22:20:00,
2013-01-09 14:25:00,49.4,47.7,30.02,North,9,4.0,14.0,94,0.00,,,0.02,LWC V1.00 B64,2013-01-09 22:25:00,
2013-01-09 14:30:00,49.4,47.7,30.02,North,355,5.0,19.0,94,0.00,,,0.02,LWC V1.00 B64,2013-01-09 22:30:00,
2013-01-09 14:35:00,49.3,47.6,30.03,NW,316,6.0,17.0,94,0.00,,,0.02,LWC V1.00 B64,2013-01-09 22:35:00,
2013-01-09 14:40:00,49.2,47.5,30.03,North,0,10.0,22.0,94,0.00,,,0.02,LWC V1.00 B64,2013-01-09 22:40:00,
2013-01-09 14:45:00,49.2,47.3,30.03,North,0,9.0,16.0,93,0.00,,,0.02,LWC V1.00 B64,2013-01-09 22:45:00,
2013-01-09 14:51:00,49.4,47.5,30.02,NNW,345,7.0,12.0,93,0.00,,,0.02,LWC V1.00 B64,2013-01-09 22:51:00,
2013-01-09 14:56:00,49.6,47.7,30.03,North,11,9.0,14.0,93,0.00,,,0.02,LWC V1.00 B64,2013-01-09 22:56:00,
2013-01-09 15:01:00,49.7,47.5,30.03,NNW,348,12.0,12.0,92,0.00,,,0.02,LWC V1.00 B64,2013-01-09 23:01:00,
2013-01-09 15:06:00,49.9,47.4,30.03,NNW,341,6.0,10.0,91,0.00,,,0.02,LWC V1.00 B64,2013-01-09 23:06:00,
2013-01-09 15:11:00,49.7,46.6,30.03,North,355,12.0,18.0,89,0.00,,,0.02,LWC V1.00 B64,2013-01-09 23:11:00,
2013-01-09 15:16:00,49.7,46.6,30.03,NNW,343,12.0,20.0,89,0.00,,,0.02,LWC V1.00 B64,2013-01-09 23:16:00,
2013-01-09 15:21:00,49.4,46.3,30.03,NNW,333,10.0,14.0,89,0.00,,,0.02,LWC V1.00 B64,2013-01-09 23:21:00,
2013-01-09 15:26:00,49.2,45.8,30.03,NNW,342,6.0,19.0,88,0.00,,,0.02,LWC V1.00 B64,2013-01-09 23:26:00,
2013-01-09 15:31:00,49.1,45.7,30.03,North,0,10.0,20.0,88,0.00,,,0.02,LWC V1.00 B64,2013-01-09 23:31:00,
2013-01-09 15:36:00,49.2,45.5,30.03,North,5,12.0,17.0,87,0.00,,,0.02,LWC V1.00 B64,2013-01-09 23:36:00,
2013-01-09 15:41:00,49.2,45.2,30.03,North,351,8.0,13.0,86,0.00,,,0.02,LWC V1.00 B64,2013-01-09 23:41:00,
2013-01-09 15:46:00,49.2,45.2,30.03,NNW,344,9.0,10.0,86,0.00,,,0.02,LWC V1.00 B64,2013-01-09 23:46:00,
2013-01-09 15:51:00,49.0,45.0,30.03,North,10,2.0,15.0,86,0.00,,,0.02,LWC V1.00 B64,2013-01-09 23:51:00,
2013-01-09 15:56:00,48.9,44.9,30.03,North,0,10.0,16.0,86,0.00,,,0.02,LWC V1.00 B64,2013-01-09 23:56:00,
2013-01-09 16:01:00,48.9,44.3,30.03,NNE,15,10.0,23.0,84,0.00,,,0.02,LWC V1.00 B64,2013-01-10 00:01:00,
2013-01-09 16:06:00,48.8,44.5,30.03,NNW,333,5.0,10.0,85,0.00,,,0.02,LWC V1.00 B64,2013-01-10 00:06:00,
2013-01-09 16:11:00,48.7,44.4,30.03,NNW,338,7.0,13.0,85,0.00,,,0.02,LWC V1.00 B64,2013-01-10 00:11:00,
2013-01-09 16:16:00,48.6,44.3,30.03,North,5,9.0,11.0,85,0.00,,,0.02,LWC V1.00 B64,2013-01-10 00:16:00,
2013-01-09 16:21:00,48.6,44.0,30.03,North,350,3.0,13.0,84,0.00,,,0.02,LWC V1.00 B64,2013-01-10 00:21:00,
2013-01-09 16:26:00,48.7,44.1,30.03,North,0,6.0,8.0,84,0.00,,,0.02,LWC V1.00 B64,2013-01-10 00:26:00,
2013-01-09 16:31:00,48.8,43.6,30.03,North,355,2.0,20.0,82,0.00,,,0.02,LWC V1.00 B64,2013-01-10 00:31:00,
2013-01-09 16:36:00,48.8,43.6,30.03,North,355,4.0,13.0,82,0.00,,,0.02,LWC V1.00 B64,2013-01-10 00:36:00,
2013-01-09 16:41:00,48.8,43.6,30.03,WNW,291,2.0,14.0,82,0.00,,,0.02,LWC V1.00 B64,2013-01-10 00:41:00,
2013-01-09 16:46:00,48.7,43.5,30.03,North,350,6.0,11.0,82,0.00,,,0.02,LWC V1.00 B64,2013-01-10 00:46:00,
2013-01-09 16:51:00,48.8,42.9,30.03,NNE,16,3.0,15.0,80,0.00,,,0.02,LWC V1.00 B64,2013-01-10 00:51:00,
2013-01-09 16:56:00,48.8,42.6,30.02,North,349,11.0,15.0,79,0.00,,,0.02,LWC V1.00 B64,2013-01-10 00:56:00,
2013-01-09 17:01:00,48.7,42.8,30.02,North,349,3.0,11.0,80,0.00,,,0.02,LWC V1.00 B64,2013-01-10 01:01:00,
2013-01-09 17:06:00,48.7,42.5,30.03,NNW,344,4.0,10.0,79,0.00,,,0.02,LWC V1.00 B64,2013-01-10 01:06:00,
2013-01-09 17:11:00,48.6,42.7,30.03,NNW,344,0.0,10.0,80,0.00,,,0.02,LWC V1.00 B64,2013-01-10 01:11:00,
2013-01-09 17:16:00,48.4,42.2,30.03,NW,317,7.0,13.0,79,0.00,,,0.02,LWC V1.00 B64,2013-01-10 01:16:00,
2013-01-09 17:21:00,48.3,41.8,30.03,North,355,7.0,12.0,78,0.00,,,0.02,LWC V1.00 B64,2013-01-10 01:21:00,
2013-01-09 17:26:00,48.2,42.0,30.03,North,355,11.0,12.0,79,0.00,,,0.02,LWC V1.00 B64,2013-01-10 01:26:00,
2013-01-09 17:32:00,48.2,42.0,30.03,North,5,6.0,13.0,79,0.00,,,0.02,LWC V1.00 B64,2013-01-10 01:32:00,
2013-01-09 17:37:00,47.9,42.0,30.03,NNE,24,3.0,7.0,80,0.00,,,0.02,LWC V1.00 B64,2013-01-10 01:37:00,
2013-01-09 17:42:00,47.8,41.6,30.03,North,0,5.0,11.0,79,0.00,,,0.02,LWC V1.00 B64,2013-01-10 01:42:00,
2013-01-09 17:47:00,47.6,41.1,30.03,North,355,6.0,10.0,78,0.00,,,0.02,LWC V1.00 B64,2013-01-10 01:47:00,
2013-01-09 17:52:00,47.7,41.2,30.03,North,351,7.0,11.0,78,0.00,,,0.02,LWC V1.00 B64,2013-01-10 01:52:00,
2013-01-09 17:57:00,47.5,41.0,30.03,NNW,346,7.0,10.0,78,0.00,,,0.02,LWC V1.00 B64,2013-01-10 01:57:00,
2013-01-09 18:02:00,47.4,40.9,30.03,North,0,3.0,11.0,78,0.00,,,0.02,LWC V1.00 B64,2013-01-10 02:02:00,
2013-01-09 18:07:00,47.5,40.7,30.03,NNE,18,10.0,14.0,77,0.00,,,0.02,LWC V1.00 B64,2013-01-10 02:07:00,
2013-01-09 18:12:00,47.4,40.6,30.03,NNW,344,5.0,11.0,77,0.00,,,0.02,LWC V1.00 B64,2013-01-10 02:12:00,
2013-01-09 18:17:00,47.4,40.2,30.03,North,0,9.0,15.0,76,0.00,,,0.02,LWC V1.00 B64,2013-01-10 02:17:00,
2013-01-09 18:22:00,47.4,40.2,30.03,North,355,11.0,12.0,76,0.00,,,0.02,LWC V1.00 B64,2013-01-10 02:22:00,
2013-01-09 18:27:00,47.2,40.4,30.03,NNW,345,10.0,16.0,77,0.00,,,0.02,LWC V1.00 B64,2013-01-10 02:27:00,
2013-01-09 18:32:00,47.3,40.8,30.04,North,350,8.0,12.0,78,0.00,,,0.02,LWC V1.00 B64,2013-01-10 02:32:00,
2013-01-09 18:37:00,47.2,40.7,30.03,NNW,335,9.0,11.0,78,0.00,,,0.02,LWC V1.00 B64,2013-01-10 02:37:00,
2013-01-09 18:43:00,47.2,40.7,30.04,North,355,9.0,11.0,78,0.00,,,0.02,LWC V1.00 B64,2013-01-10 02:43:00,
2013-01-09 18:48:00,47.1,40.6,30.04,North,355,13.0,13.0,78,0.00,,,0.02,LWC V1.00 B64,2013-01-10 02:48:00,
2013-01-09 18:53:00,47.1,40.6,30.03,NNW,331,8.0,16.0,78,0.00,,,0.02,LWC V1.00 B64,2013-01-10 02:53:00,
2013-01-09 18:58:00,47.4,41.2,30.03,NNW,348,6.0,14.0,79,0.00,,,0.02,LWC V1.00 B64,2013-01-10 02:58:00,
2013-01-09 19:03:00,47.3,40.8,30.04,NNW,340,5.0,9.0,78,0.00,,,0.02,LWC V1.00 B64,2013-01-10 03:03:00,
2013-01-09 19:09:00,47.2,40.4,30.04,NNW,341,4.0,9.0,77,0.00,,,0.02,LWC V1.00 B64,2013-01-10 03:09:00,
2013-01-09 19:14:00,47.0,40.5,30.04,NNW,344,4.0,6.0,78,0.00,,,0.02,LWC V1.00 B64,2013-01-10 03:14:00,
2013-01-09 19:19:00,46.9,40.7,30.04,NW,322,4.0,10.0,79,0.00,,,0.02,LWC V1.00 B64,2013-01-10 03:19:00,
2013-01-09 19:24:00,46.6,40.4,30.04,NNW,344,2.0,7.0,79,0.00,,,0.02,LWC V1.00 B64,2013-01-10 03:24:00,
2013-01-09 19:29:00,46.4,40.6,30.05,NNW,348,3.0,10.0,80,0.00,,,0.02,LWC V1.00 B64,2013-01-10 03:29:00,
2013-01-09 19:34:00,46.5,40.7,30.05,North,5,6.0,9.0,80,0.00,,,0.02,LWC V1.00 B64,2013-01-10 03:34:00,
2013-01-09 19:40:00,46.8,40.6,30.05,North,5,4.0,5.0,79,0.00,,,0.02,LWC V1.00 B64,2013-01-10 03:40:00,
2013-01-09 19:45:00,46.9,40.4,30.05,North,351,14.0,17.0,78,0.00,,,0.02,LWC V1.00 B64,2013-01-10 03:45:00,
2013-01-09 19:50:00,47.0,40.5,30.05,NNW,338,6.0,11.0,78,0.00,,,0.02,LWC V1.00 B64,2013-01-10 03:50:00,
2013-01-09 19:56:00,46.9,40.4,30.05,NNW,331,10.0,15.0,78,0.00,,,0.02,LWC V1.00 B64,2013-01-10 03:56:00,
2013-01-09 20:01:00,46.9,40.1,30.05,North,11,10.0,12.0,77,0.00,,,0.02,LWC V1.00 B64,2013-01-10 04:01:00,
2013-01-09 20:06:00,46.5,39.7,30.06,North,9,6.0,12.0,77,0.00,,,0.02,LWC V1.00 B64,2013-01-10 04:06:00,
2013-01-09 20:11:00,46.5,39.7,30.06,North,0,6.0,11.0,77,0.00,,,0.02,LWC V1.00 B64,2013-01-10 04:11:00,
2013-01-09 20:16:00,46.4,39.6,30.06,North,355,6.0,13.0,77,0.00,,,0.02,LWC V1.00 B64,2013-01-10 04:16:00,
2013-01-09 20:21:00,46.2,39.4,30.06,North,0,2.0,5.0,77,0.00,,,0.02,LWC V1.00 B64,2013-01-10 04:21:00,
2013-01-09 20:26:00,46.0,39.5,30.06,North,355,1.0,4.0,78,0.00,,,0.02,LWC V1.00 B64,2013-01-10 04:26:00,
2013-01-09 20:32:00,45.9,39.4,30.06,North,0,0.0,6.0,78,0.00,,,0.02,LWC V1.00 B64,2013-01-10 04:32:00,
2013-01-09 20:37:00,45.9,39.4,30.06,North,5,2.0,6.0,78,0.00,,,0.02,LWC V1.00 B64,2013-01-10 04:37:00,
2013-01-09 20:42:00,46.0,39.5,30.06,NNW,340,8.0,9.0,78,0.00,,,0.02,LWC V1.00 B64,2013-01-10 04:42:00,
2013-01-09 20:47:00,46.1,39.3,30.06,North,0,10.0,11.0,77,0.00,,,0.02,LWC V1.00 B64,2013-01-10 04:47:00,
2013-01-09 20:52:00,46.2,39.4,30.07,North,355,2.0,6.0,77,0.00,,,0.02,LWC V1.00 B64,2013-01-10 04:52:00,
2013-01-09 20:57:00,46.3,39.8,30.07,North,355,10.0,13.0,78,0.00,,,0.02,LWC V1.00 B64,2013-01-10 04:57:00,
2013-01-09 21:00:00,46.6,40.1,30.07,North,0,8.0,19.0,78,0.00,,,0.03,LWC V1.00 B64,2013-01-10 05:00:00,
2013-01-09 21:03:00,46.8,40.6,30.07,North,5,9.0,17.0,79,0.00,,,0.03,LWC V1.00 B64,2013-01-10 05:03:00,
2013-01-09 21:04:00,46.8,40.6,30.07,NNE,19,10.0,13.0,79,0.00,,,0.03,LWC V1.00 B64,2013-01-10 05:04:00,
2013-01-09 21:09:00,46.0,39.5,30.08,North,5,13.0,22.0,78,0.00,,,0.03,LWC V1.00 B64,2013-01-10 05:09:00,
2013-01-09 21:12:00,45.1,39.6,30.08,North,11,6.0,18.0,81,0.00,,,0.03,LWC V1.00 B64,2013-01-10 05:12:00,
2013-01-09 21:17:00,44.5,39.4,30.08,North,0,5.0,12.0,82,0.00,,,0.03,LWC V1.00 B64,2013-01-10 05:17:00,
2013-01-09 21:22:00,44.3,39.2,30.08,North,5,3.0,7.0,82,0.00,,,0.03,LWC V1.00 B64,2013-01-10 05:22:00,
2013-01-09 21:27:00,44.0,39.2,30.08,NNW,341,2.0,3.0,83,0.00,,,0.03,LWC V1.00 B64,2013-01-10 05:27:00,
2013-01-09 21:32:00,43.6,39.1,30.08,NNW,327,1.0,3.0,84,0.00,,,0.03,LWC V1.00 B64,2013-01-10 05:32:00,
2013-01-09 21:37:00,43.8,39.6,30.08,North,0,4.0,9.0,85,0.00,,,0.03,LWC V1.00 B64,2013-01-10 05:37:00,
2013-01-09 21:42:00,43.8,39.9,30.08,North,5,2.0,4.0,86,0.00,,,0.03,LWC V1.00 B64,2013-01-10 05:42:00,
2013-01-09 21:48:00,43.5,39.9,30.08,NW,313,0.0,1.0,87,0.00,,,0.03,LWC V1.00 B64,2013-01-10 05:48:00,
2013-01-09 21:53:00,43.3,39.7,30.08,NW,313,0.0,2.0,87,0.00,,,0.03,LWC V1.00 B64,2013-01-10 05:53:00,
2013-01-09 21:58:00,43.1,39.5,30.09,NW,313,0.0,1.0,87,0.00,,,0.03,LWC V1.00 B64,2013-01-10 05:58:00,
2013-01-09 22:03:00,42.7,39.1,30.09,NW,313,0.0,0.0,87,0.00,,,0.03,LWC V1.00 B64,2013-01-10 06:03:00,
2013-01-09 22:08:00,42.5,39.5,30.09,North,5,0.0,1.0,89,0.00,,,0.03,LWC V1.00 B64,2013-01-10 06:08:00,
2013-01-09 22:14:00,42.9,39.6,30.09,North,355,0.0,1.0,88,0.00,,,0.03,LWC V1.00 B64,2013-01-10 06:14:00,
2013-01-09 22:19:00,43.2,39.9,30.09,North,11,1.0,5.0,88,0.00,,,0.03,LWC V1.00 B64,2013-01-10 06:19:00,
2013-01-09 22:25:00,43.5,39.6,30.09,North,5,1.0,2.0,86,0.00,,,0.03,LWC V1.00 B64,2013-01-10 06:25:00,
2013-01-09 22:31:00,43.5,39.3,30.08,NNE,15,0.0,1.0,85,0.00,,,0.03,LWC V1.00 B64,2013-01-10 06:31:00,
2013-01-09 22:37:00,43.6,39.4,30.08,NNE,15,0.0,2.0,85,0.00,,,0.03,LWC V1.00 B64,2013-01-10 06:37:00,
2013-01-09 22:43:00,43.0,39.1,30.09,NNE,15,0.0,1.0,86,0.00,,,0.03,LWC V1.00 B64,2013-01-10 06:43:00,
2013-01-09 22:48:00,42.5,39.2,30.09,NNE,15,0.0,2.0,88,0.00,,,0.03,LWC V1.00 B64,2013-01-10 06:48:00,
2013-01-09 22:53:00,43.0,40.0,30.09,NNW,348,3.0,6.0,89,0.00,,,0.03,LWC V1.00 B64,2013-01-10 06:53:00,
2013-01-09 22:58:00,43.8,39.9,30.10,North,0,3.0,5.0,86,0.00,,,0.03,LWC V1.00 B64,2013-01-10 06:58:00,
2013-01-09 23:03:00,43.7,39.5,30.09,North,0,0.0,5.0,85,0.00,,,0.03,LWC V1.00 B64,2013-01-10 07:03:00,
2013-01-09 23:08:00,43.6,39.4,30.10,North,0,0.0,1.0,85,0.00,,,0.03,LWC V1.00 B64,2013-01-10 07:08:00,
2013-01-09 23:13:00,43.5,39.3,30.10,North,0,0.0,2.0,85,0.00,,,0.03,LWC V1.00 B64,2013-01-10 07:13:00,
2013-01-09 23:19:00,43.2,39.3,30.10,North,0,0.0,0.0,86,0.00,,,0.03,LWC V1.00 B64,2013-01-10 07:19:00,
2013-01-09 23:24:00,42.9,39.0,30.10,North,0,2.0,4.0,86,0.00,,,0.03,LWC V1.00 B64,2013-01-10 07:24:00,
2013-01-09 23:29:00,42.6,38.7,30.10,North,0,0.0,2.0,86,0.00,,,0.03,LWC V1.00 B64,2013-01-10 07:29:00,
2013-01-09 23:34:00,42.3,38.4,30.10,North,0,2.0,2.0,86,0.00,,,0.03,LWC V1.00 B64,2013-01-10 07:34:00,
2013-01-09 23:39:00,42.2,38.3,30.10,North,0,1.0,2.0,86,0.00,,,0.03,LWC V1.00 B64,2013-01-10 07:39:00,
2013-01-09 23:44:00,42.0,37.8,30.10,North,0,0.0,1.0,85,0.00,,,0.03,LWC V1.00 B64,2013-01-10 07:44:00,
2013-01-09 23:49:00,41.9,37.7,30.10,North,0,0.0,1.0,85,0.00,,,0.03,LWC V1.00 B64,2013-01-10 07:49:00,
2013-01-09 23:54:00,41.9,37.7,30.10,North,0,0.0,2.0,85,0.00,,,0.03,LWC V1.00 B64,2013-01-10 07:54:00,
2013-01-09 23:59:00,41.9,37.7,30.10,North,0,2.0,3.0,85,0.00,,,0.03,LWC V1.00 B64,2013-01-10 07:59:00,